Time,TemperatureF,DewpointF,PressureIn,WindDirection,WindDirectionDegrees,WindSpeedMPH,WindSpeedGustMPH,Humidity,HourlyPrecipIn,Conditions,Clouds,dailyrainin,SoftwareType,DateUTC
2013-12-02 00:00:00,37.3,33.2,29.14,West,267,5.0,5.0,85,0.00,,,0.00,Wunderground v.1.15,2013-12-02 05:00:00,
2013-12-02 00:05:00,37.3,33.2,29.13,West,263,4.0,5.0,85,0.00,,,0.00,Wunderground v.1.15,2013-12-02 05:05:00,
2013-12-02 00:10:00,37.3,33.2,29.13,West,263,4.0,6.0,85,0.00,,,0.00,Wunderground v.1.15,2013-12-02 05:10:00,
2013-12-02 00:14:00,37.3,33.2,29.13,West,259,5.0,6.0,85,0.00,,,0.00,Wunderground v.1.15,2013-12-02 05:14:00,
2013-12-02 00:19:00,37.3,33.2,29.13,WSW,245,5.0,7.0,85,0.00,,,0.00,Wunderground v.1.15,2013-12-02 05:19:00,
2013-12-02 00:24:00,37.4,33.3,29.13,West,263,5.0,7.0,85,0.00,,,0.00,Wunderground v.1.15,2013-12-02 05:24:00,
2013-12-02 00:29:00,37.4,33.3,29.13,West,271,5.0,5.0,85,0.00,,,0.00,Wunderground v.1.15,2013-12-02 05:29:00,
2013-12-02 00:34:00,37.4,33.3,29.13,West,262,4.0,5.0,85,0.00,,,0.00,Wunderground v.1.15,2013-12-02 05:34:00,
2013-12-02 00:40:00,37.3,33.2,29.13,West,267,4.0,4.0,85,0.00,,,0.00,Wunderground v.1.15,2013-12-02 05:40:00,
2013-12-02 00:45:00,37.2,33.1,29.13,West,263,5.0,5.0,85,0.00,,,0.00,Wunderground v.1.15,2013-12-02 05:45:00,
2013-12-02 00:50:00,37.2,33.1,29.13,West,265,5.0,5.0,85,0.00,,,0.00,Wunderground v.1.15,2013-12-02 05:50:00,
2013-12-02 00:55:00,37.2,33.1,29.13,West,261,5.0,6.0,85,0.00,,,0.00,Wunderground v.1.15,2013-12-02 05:55:00,
2013-12-02 01:00:00,37.2,33.1,29.12,West,259,6.0,6.0,85,0.00,,,0.00,Wunderground v.1.15,2013-12-02 06:00:00,
2013-12-02 01:05:00,37.4,33.3,29.12,West,263,5.0,7.0,85,0.00,,,0.00,Wunderground v.1.15,2013-12-02 06:05:00,
2013-12-02 01:10:00,37.4,33.3,29.12,West,265,5.0,7.0,85,0.00,,,0.00,Wunderground v.1.15,2013-12-02 06:10:00,
2013-12-02 01:20:00,37.5,33.4,29.12,West,264,5.0,5.0,85,0.00,,,0.00,Wunderground v.1.15,2013-12-02 06:20:00,
2013-12-02 01:25:00,37.5,33.4,29.12,WSW,250,5.0,7.0,85,0.00,,,0.00,Wunderground v.1.15,2013-12-02 06:25:00,
2013-12-02 01:30:00,37.4,33.0,29.11,WSW,252,4.0,7.0,84,0.00,,,0.00,Wunderground v.1.15,2013-12-02 06:30:00,
2013-12-02 01:35:00,37.3,32.9,29.11,WSW,252,4.0,7.0,84,0.00,,,0.00,Wunderground v.1.15,2013-12-02 06:35:00,
2013-12-02 01:40:00,37.3,33.2,29.12,West,266,4.0,7.0,85,0.00,,,0.00,Wunderground v.1.15,2013-12-02 06:40:00,
2013-12-02 01:45:00,37.4,33.3,29.12,West,269,4.0,7.0,85,0.00,,,0.00,Wunderground v.1.15,2013-12-02 06:45:00,
2013-12-02 01:55:00,37.5,33.4,29.12,West,266,2.0,7.0,85,0.00,,,0.00,Wunderground v.1.15,2013-12-02 06:55:00,
2013-12-02 02:00:00,37.4,33.3,29.12,West,264,2.0,7.0,85,0.00,,,0.00,Wunderground v.1.15,2013-12-02 07:00:00,
2013-12-02 02:05:00,37.3,33.2,29.12,West,263,4.0,7.0,85,0.00,,,0.00,Wunderground v.1.15,2013-12-02 07:05:00,
2013-12-02 02:10:00,37.2,33.1,29.12,West,263,4.0,4.0,85,0.00,,,0.00,Wunderground v.1.15,2013-12-02 07:10:00,
2013-12-02 02:15:00,37.3,33.2,29.12,West,263,4.0,5.0,85,0.00,,,0.00,Wunderground v.1.15,2013-12-02 07:15:00,
2013-12-02 02:25:00,37.4,33.3,29.12,WSW,258,4.0,7.0,85,0.00,,,0.00,Wunderground v.1.15,2013-12-02 07:25:00,
2013-12-02 02:30:00,37.5,33.1,29.11,West,263,5.0,7.0,84,0.00,,,0.00,Wunderground v.1.15,2013-12-02 07:30:00,
2013-12-02 02:35:00,37.4,33.0,29.11,West,263,5.0,7.0,84,0.00,,,0.00,Wunderground v.1.15,2013-12-02 07:35:00,
2013-12-02 02:40:00,37.4,33.0,29.11,West,261,5.0,5.0,84,0.00,,,0.00,Wunderground v.1.15,2013-12-02 07:40:00,
2013-12-02 02:45:00,37.5,33.4,29.11,West,263,4.0,7.0,85,0.00,,,0.00,Wunderground v.1.15,2013-12-02 07:45:00,
2013-12-02 02:50:00,37.5,33.4,29.11,West,259,4.0,7.0,85,0.00,,,0.00,Wunderground v.1.15,2013-12-02 07:50:00,
2013-12-02 03:00:00,37.7,33.6,29.11,West,260,2.0,2.0,85,0.00,,,0.00,Wunderground v.1.15,2013-12-02 08:00:00,
2013-12-02 03:05:00,37.8,33.7,29.11,West,260,1.0,7.0,85,0.00,,,0.00,Wunderground v.1.15,2013-12-02 08:05:00,
2013-12-02 03:10:00,37.7,33.3,29.10,West,260,0.0,7.0,84,0.00,,,0.00,Wunderground v.1.15,2013-12-02 08:10:00,
2013-12-02 03:15:00,37.7,33.3,29.10,West,261,0.0,7.0,84,0.00,,,0.00,Wunderground v.1.15,2013-12-02 08:15:00,
2013-12-02 03:20:00,37.7,33.3,29.10,West,261,0.0,7.0,84,0.00,,,0.00,Wunderground v.1.15,2013-12-02 08:20:00,
2013-12-02 03:29:00,38.0,33.6,29.10,West,262,0.0,7.0,84,0.00,,,0.00,Wunderground v.1.15,2013-12-02 08:29:00,
2013-12-02 03:34:00,38.0,33.6,29.10,West,262,0.0,7.0,84,0.00,,,0.00,Wunderground v.1.15,2013-12-02 08:34:00,
2013-12-02 03:39:00,38.1,33.4,29.10,West,262,0.0,7.0,83,0.00,,,0.00,Wunderground v.1.15,2013-12-02 08:39:00,
2013-12-02 03:45:00,38.2,33.5,29.09,West,263,0.0,7.0,83,0.00,,,0.00,Wunderground v.1.15,2013-12-02 08:45:00,
2013-12-02 03:50:00,38.2,33.8,29.09,West,262,0.0,7.0,84,0.00,,,0.00,Wunderground v.1.15,2013-12-02 08:50:00,
2013-12-02 03:55:00,38.2,33.5,29.09,West,261,0.0,7.0,83,0.00,,,0.00,Wunderground v.1.15,2013-12-02 08:55:00,
2013-12-02 04:04:00,38.2,33.5,29.09,West,261,1.0,7.0,83,0.00,,,0.00,Wunderground v.1.15,2013-12-02 09:04:00,
2013-12-02 04:09:00,38.2,33.5,29.09,West,261,1.0,1.0,83,0.00,,,0.00,Wunderground v.1.15,2013-12-02 09:09:00,
2013-12-02 04:14:00,38.2,33.5,29.09,West,261,1.0,7.0,83,0.00,,,0.00,Wunderground v.1.15,2013-12-02 09:14:00,
2013-12-02 04:19:00,38.2,33.8,29.09,West,274,0.0,7.0,84,0.00,,,0.00,Wunderground v.1.15,2013-12-02 09:19:00,
2013-12-02 04:24:00,38.3,33.9,29.09,West,279,1.0,7.0,84,0.00,,,0.00,Wunderground v.1.15,2013-12-02 09:24:00,
2013-12-02 04:30:00,38.4,34.0,29.09,WNW,291,1.0,1.0,84,0.00,,,0.00,Wunderground v.1.15,2013-12-02 09:30:00,
2013-12-02 04:35:00,38.4,34.0,29.09,WNW,299,1.0,7.0,84,0.00,,,0.00,Wunderground v.1.15,2013-12-02 09:35:00,
2013-12-02 04:40:00,38.5,34.1,29.08,WNW,298,1.0,7.0,84,0.00,,,0.00,Wunderground v.1.15,2013-12-02 09:40:00,
2013-12-02 04:45:00,38.5,34.1,29.08,WNW,294,1.0,7.0,84,0.00,,,0.00,Wunderground v.1.15,2013-12-02 09:45:00,
2013-12-02 04:50:00,38.5,34.1,29.08,WNW,294,2.0,2.0,84,0.00,,,0.00,Wunderground v.1.15,2013-12-02 09:50:00,
2013-12-02 04:55:00,38.6,34.2,29.08,WNW,297,2.0,7.0,84,0.00,,,0.00,Wunderground v.1.15,2013-12-02 09:55:00,
2013-12-02 05:05:00,38.7,34.3,29.09,WNW,298,2.0,7.0,84,0.00,,,0.00,Wunderground v.1.15,2013-12-02 10:05:00,
2013-12-02 05:10:00,38.7,34.3,29.08,WNW,290,2.0,7.0,84,0.00,,,0.00,Wunderground v.1.15,2013-12-02 10:10:00,
2013-12-02 07:40:00,38.0,34.5,29.08,WNW,294,0.0,7.0,87,0.00,,,0.00,Wunderground v.1.15,2013-12-02 12:40:00,
2013-12-02 07:45:00,38.0,34.5,29.08,WNW,292,0.0,7.0,87,0.00,,,0.00,Wunderground v.1.15,2013-12-02 12:45:00,
2013-12-02 07:50:00,38.0,34.5,29.08,WNW,292,1.0,1.0,87,0.00,,,0.00,Wunderground v.1.15,2013-12-02 12:50:00,
2013-12-02 08:00:00,38.1,34.9,29.09,WNW,296,0.0,7.0,88,0.00,,,0.00,Wunderground v.1.15,2013-12-02 13:00:00,
2013-12-02 08:05:00,38.2,35.0,29.09,WNW,296,0.0,7.0,88,0.00,,,0.00,Wunderground v.1.15,2013-12-02 13:05:00,
2013-12-02 08:10:00,38.3,35.1,29.09,WNW,298,0.0,7.0,88,0.00,,,0.00,Wunderground v.1.15,2013-12-02 13:10:00,
2013-12-02 08:15:00,38.4,35.4,29.09,WNW,290,0.0,7.0,89,0.00,,,0.00,Wunderground v.1.15,2013-12-02 13:15:00,
2013-12-02 08:20:00,38.5,35.5,29.09,WNW,292,0.0,7.0,89,0.00,,,0.00,Wunderground v.1.15,2013-12-02 13:20:00,
2013-12-02 08:30:00,38.6,35.6,29.09,WNW,296,0.0,7.0,89,0.00,,,0.00,Wunderground v.1.15,2013-12-02 13:30:00,
2013-12-02 08:35:00,38.6,35.6,29.09,WNW,294,0.0,7.0,89,0.00,,,0.00,Wunderground v.1.15,2013-12-02 13:35:00,
2013-12-02 08:40:00,38.7,35.7,29.10,WNW,294,0.0,7.0,89,0.00,,,0.00,Wunderground v.1.15,2013-12-02 13:40:00,
2013-12-02 08:45:00,38.8,35.8,29.09,WNW,294,0.0,7.0,89,0.00,,,0.00,Wunderground v.1.15,2013-12-02 13:45:00,
2013-12-02 08:50:00,38.8,35.8,29.09,WNW,294,0.0,7.0,89,0.00,,,0.00,Wunderground v.1.15,2013-12-02 13:50:00,
2013-12-02 08:55:00,38.9,35.9,29.10,WNW,295,0.0,7.0,89,0.00,,,0.00,Wunderground v.1.15,2013-12-02 13:55:00,
2013-12-02 09:04:00,38.9,35.9,29.09,WNW,296,0.0,7.0,89,0.00,,,0.00,Wunderground v.1.15,2013-12-02 14:04:00,
2013-12-02 09:09:00,39.1,36.1,29.09,WNW,296,0.0,7.0,89,0.00,,,0.00,Wunderground v.1.15,2013-12-02 14:09:00,
2013-12-02 09:14:00,39.0,36.0,29.09,WNW,296,0.0,7.0,89,0.00,,,0.00,Wunderground v.1.15,2013-12-02 14:14:00,
2013-12-02 09:19:00,39.1,35.8,29.09,WNW,296,0.0,7.0,88,0.00,,,0.00,Wunderground v.1.15,2013-12-02 14:19:00,
2013-12-02 09:24:00,38.6,35.4,29.09,WNW,288,1.0,7.0,88,0.00,,,0.00,Wunderground v.1.15,2013-12-02 14:24:00,
2013-12-02 09:30:00,38.1,34.9,29.09,West,263,3.0,7.0,88,0.00,,,0.00,Wunderground v.1.15,2013-12-02 14:30:00,
2013-12-02 09:35:00,38.1,35.1,29.09,West,263,3.0,7.0,89,0.00,,,0.00,Wunderground v.1.15,2013-12-02 14:35:00,
2013-12-02 09:40:00,38.4,35.4,29.08,West,263,1.0,1.0,89,0.00,,,0.00,Wunderground v.1.15,2013-12-02 14:40:00,
2013-12-02 09:49:00,39.0,36.3,29.09,West,264,0.0,7.0,90,0.00,,,0.00,Wunderground v.1.15,2013-12-02 14:49:00,
2013-12-02 09:54:00,39.3,36.3,29.09,West,272,0.0,7.0,89,0.00,,,0.00,Wunderground v.1.15,2013-12-02 14:54:00,
2013-12-02 09:59:00,39.5,36.5,29.09,WNW,283,0.0,7.0,89,0.00,,,0.00,Wunderground v.1.15,2013-12-02 14:59:00,
2013-12-02 10:05:00,39.6,36.3,29.09,WNW,285,0.0,7.0,88,0.00,,,0.00,Wunderground v.1.15,2013-12-02 15:05:00,
2013-12-02 10:10:00,39.7,36.4,29.09,WNW,288,0.0,7.0,88,0.00,,,0.00,Wunderground v.1.15,2013-12-02 15:10:00,
2013-12-02 10:15:00,39.9,36.6,29.09,WNW,289,0.0,7.0,88,0.00,,,0.00,Wunderground v.1.15,2013-12-02 15:15:00,
2013-12-02 10:20:00,40.1,36.8,29.09,WNW,289,0.0,7.0,88,0.00,,,0.00,Wunderground v.1.15,2013-12-02 15:20:00,
2013-12-02 10:25:00,40.2,36.6,29.09,WNW,294,0.0,7.0,87,0.00,,,0.00,Wunderground v.1.15,2013-12-02 15:25:00,
2013-12-02 10:30:00,40.2,36.6,29.09,WNW,294,0.0,7.0,87,0.00,,,0.00,Wunderground v.1.15,2013-12-02 15:30:00,
2013-12-02 10:40:00,40.3,36.4,29.09,WNW,294,0.0,7.0,86,0.00,,,0.00,Wunderground v.1.15,2013-12-02 15:40:00,
2013-12-02 10:45:00,40.3,36.4,29.09,WNW,295,0.0,7.0,86,0.00,,,0.00,Wunderground v.1.15,2013-12-02 15:45:00,
2013-12-02 10:50:00,40.4,36.8,29.09,WNW,295,0.0,7.0,87,0.00,,,0.00,Wunderground v.1.15,2013-12-02 15:50:00,
2013-12-02 10:55:00,40.5,36.6,29.09,WNW,295,0.0,7.0,86,0.00,,,0.00,Wunderground v.1.15,2013-12-02 15:55:00,
2013-12-02 11:00:00,40.6,36.7,29.09,WNW,295,0.0,7.0,86,0.00,,,0.00,Wunderground v.1.15,2013-12-02 16:00:00,
2013-12-02 11:10:00,40.7,36.8,29.08,WNW,296,0.0,7.0,86,0.00,,,0.00,Wunderground v.1.15,2013-12-02 16:10:00,
2013-12-02 11:15:00,40.7,36.8,29.08,WNW,296,0.0,7.0,86,0.00,,,0.00,Wunderground v.1.15,2013-12-02 16:15:00,
2013-12-02 11:20:00,40.9,37.0,29.08,WNW,296,0.0,7.0,86,0.00,,,0.00,Wunderground v.1.15,2013-12-02 16:20:00,
2013-12-02 11:25:00,41.1,36.9,29.08,WNW,296,0.0,7.0,85,0.00,,,0.00,Wunderground v.1.15,2013-12-02 16:25:00,
2013-12-02 11:30:00,41.2,37.0,29.08,WNW,296,0.0,7.0,85,0.00,,,0.00,Wunderground v.1.15,2013-12-02 16:30:00,
2013-12-02 11:35:00,41.4,37.2,29.08,WNW,296,0.0,7.0,85,0.00,,,0.00,Wunderground v.1.15,2013-12-02 16:35:00,
2013-12-02 11:45:00,41.6,37.1,29.07,WNW,296,0.0,7.0,84,0.00,,,0.00,Wunderground v.1.15,2013-12-02 16:45:00,
2013-12-02 11:50:00,41.6,37.1,29.07,WNW,296,0.0,7.0,84,0.00,,,0.00,Wunderground v.1.15,2013-12-02 16:50:00,
2013-12-02 11:55:00,41.6,37.1,29.07,WNW,296,0.0,7.0,84,0.00,,,0.00,Wunderground v.1.15,2013-12-02 16:55:00,
2013-12-02 12:00:00,41.6,37.1,29.07,WNW,296,0.0,7.0,84,0.00,,,0.00,Wunderground v.1.15,2013-12-02 17:00:00,
2013-12-02 12:05:00,41.5,37.0,29.06,WNW,296,0.0,7.0,84,0.00,,,0.00,Wunderground v.1.15,2013-12-02 17:05:00,
2013-12-02 12:15:00,41.5,37.0,29.06,WNW,296,0.0,7.0,84,0.00,,,0.00,Wunderground v.1.15,2013-12-02 17:15:00,
2013-12-02 12:20:00,41.4,36.9,29.06,WNW,296,0.0,7.0,84,0.00,,,0.00,Wunderground v.1.15,2013-12-02 17:20:00,
2013-12-02 12:25:00,41.3,36.8,29.06,WNW,296,0.0,7.0,84,0.00,,,0.00,Wunderground v.1.15,2013-12-02 17:25:00,
2013-12-02 12:30:00,41.2,36.7,29.06,WNW,296,0.0,7.0,84,0.00,,,0.00,Wunderground v.1.15,2013-12-02 17:30:00,
2013-12-02 12:35:00,41.1,36.6,29.06,WNW,296,0.0,7.0,84,0.00,,,0.00,Wunderground v.1.15,2013-12-02 17:35:00,
2013-12-02 12:40:00,40.9,36.4,29.06,WNW,296,0.0,7.0,84,0.00,,,0.00,Wunderground v.1.15,2013-12-02 17:40:00,
2013-12-02 12:50:00,40.7,36.2,29.06,WNW,296,0.0,7.0,84,0.00,,,0.00,Wunderground v.1.15,2013-12-02 17:50:00,
2013-12-02 12:55:00,40.6,36.4,29.06,WNW,296,0.0,7.0,85,0.00,,,0.00,Wunderground v.1.15,2013-12-02 17:55:00,
2013-12-02 13:00:00,40.4,36.2,29.05,WNW,296,0.0,7.0,85,0.00,,,0.00,Wunderground v.1.15,2013-12-02 18:00:00,
2013-12-02 13:05:00,40.1,36.0,29.05,WNW,296,0.0,7.0,85,0.00,,,0.00,Wunderground v.1.15,2013-12-02 18:05:00,
2013-12-02 13:10:00,39.8,35.7,29.05,WNW,296,0.0,7.0,85,0.00,,,0.00,Wunderground v.1.15,2013-12-02 18:10:00,
2013-12-02 13:19:00,39.3,35.5,29.05,WNW,296,0.0,7.0,86,0.00,,,0.00,Wunderground v.1.15,2013-12-02 18:19:00,
2013-12-02 13:24:00,39.2,35.4,29.05,WNW,296,0.0,7.0,86,0.00,,,0.00,Wunderground v.1.15,2013-12-02 18:24:00,
2013-12-02 13:29:00,39.3,35.8,29.05,WNW,296,0.0,7.0,87,0.00,,,0.00,Wunderground v.1.15,2013-12-02 18:29:00,
2013-12-02 13:34:00,39.5,36.0,29.05,WNW,296,0.0,7.0,87,0.00,,,0.00,Wunderground v.1.15,2013-12-02 18:34:00,
2013-12-02 13:39:00,39.6,36.0,29.05,WNW,296,0.0,7.0,87,0.00,,,0.00,Wunderground v.1.15,2013-12-02 18:39:00,
2013-12-02 13:44:00,39.8,36.2,29.05,WNW,296,0.0,7.0,87,0.00,,,0.00,Wunderground v.1.15,2013-12-02 18:44:00,
2013-12-02 13:50:00,40.0,36.4,29.05,WNW,296,0.0,7.0,87,0.00,,,0.00,Wunderground v.1.15,2013-12-02 18:50:00,
2013-12-02 13:55:00,40.1,36.5,29.05,WNW,296,0.0,7.0,87,0.00,,,0.00,Wunderground v.1.15,2013-12-02 18:55:00,
2013-12-02 14:00:00,40.1,36.5,29.05,WNW,296,0.0,7.0,87,0.00,,,0.00,Wunderground v.1.15,2013-12-02 19:00:00,
2013-12-02 14:05:00,40.2,36.6,29.05,WNW,296,0.0,7.0,87,0.00,,,0.00,Wunderground v.1.15,2013-12-02 19:05:00,
2013-12-02 14:10:00,40.2,36.3,29.04,WNW,296,0.0,7.0,86,0.00,,,0.00,Wunderground v.1.15,2013-12-02 19:10:00,
2013-12-02 14:15:00,40.2,36.3,29.04,WNW,296,0.0,7.0,86,0.00,,,0.00,Wunderground v.1.15,2013-12-02 19:15:00,
2013-12-02 14:25:00,40.2,36.3,29.04,WNW,296,0.0,7.0,86,0.00,,,0.00,Wunderground v.1.15,2013-12-02 19:25:00,
2013-12-02 14:30:00,40.2,36.3,29.04,WNW,296,0.0,7.0,86,0.00,,,0.00,Wunderground v.1.15,2013-12-02 19:30:00,
2013-12-02 14:35:00,40.2,36.3,29.04,WNW,296,0.0,7.0,86,0.00,,,0.00,Wunderground v.1.15,2013-12-02 19:35:00,
2013-12-02 14:40:00,40.3,36.7,29.04,WNW,296,0.0,7.0,87,0.00,,,0.00,Wunderground v.1.15,2013-12-02 19:40:00,
2013-12-02 14:45:00,40.3,36.7,29.04,WNW,296,0.0,7.0,87,0.00,,,0.00,Wunderground v.1.15,2013-12-02 19:45:00,
2013-12-02 14:55:00,40.4,36.8,29.05,WNW,296,0.0,7.0,87,0.00,,,0.00,Wunderground v.1.15,2013-12-02 19:55:00,
2013-12-02 15:00:00,40.4,36.8,29.04,WNW,296,0.0,7.0,87,0.00,,,0.00,Wunderground v.1.15,2013-12-02 20:00:00,
2013-12-02 15:05:00,40.4,36.8,29.05,WNW,296,0.0,7.0,87,0.00,,,0.00,Wunderground v.1.15,2013-12-02 20:05:00,
2013-12-02 15:10:00,40.4,36.5,29.05,WNW,296,0.0,7.0,86,0.00,,,0.00,Wunderground v.1.15,2013-12-02 20:10:00,
2013-12-02 15:15:00,40.3,36.4,29.05,WNW,296,0.0,7.0,86,0.00,,,0.00,Wunderground v.1.15,2013-12-02 20:15:00,
2013-12-02 15:20:00,40.2,36.3,29.05,WNW,296,0.0,7.0,86,0.00,,,0.00,Wunderground v.1.15,2013-12-02 20:20:00,
2013-12-02 15:30:00,40.2,36.3,29.05,WNW,296,0.0,7.0,86,0.00,,,0.00,Wunderground v.1.15,2013-12-02 20:30:00,
2013-12-02 15:35:00,40.1,36.2,29.05,WNW,296,0.0,7.0,86,0.00,,,0.00,Wunderground v.1.15,2013-12-02 20:35:00,
2013-12-02 15:40:00,40.0,36.2,29.05,WNW,296,0.0,7.0,86,0.00,,,0.00,Wunderground v.1.15,2013-12-02 20:40:00,
2013-12-02 15:45:00,39.9,36.1,29.05,WNW,296,0.0,7.0,86,0.00,,,0.00,Wunderground v.1.15,2013-12-02 20:45:00,
2013-12-02 15:50:00,39.7,35.9,29.06,WNW,296,0.0,7.0,86,0.00,,,0.00,Wunderground v.1.15,2013-12-02 20:50:00,
2013-12-02 16:00:00,39.5,36.0,29.05,WNW,296,0.0,7.0,87,0.00,,,0.00,Wunderground v.1.15,2013-12-02 21:00:00,
2013-12-02 16:05:00,39.4,35.9,29.05,WNW,297,0.0,7.0,87,0.00,,,0.00,Wunderground v.1.15,2013-12-02 21:05:00,
2013-12-02 16:10:00,39.3,35.8,29.05,WNW,297,0.0,7.0,87,0.00,,,0.00,Wunderground v.1.15,2013-12-02 21:10:00,
2013-12-02 16:15:00,39.2,35.7,29.06,WNW,297,0.0,7.0,87,0.00,,,0.00,Wunderground v.1.15,2013-12-02 21:15:00,
2013-12-02 16:20:00,39.0,35.5,29.06,WNW,297,0.0,7.0,87,0.00,,,0.00,Wunderground v.1.15,2013-12-02 21:20:00,
2013-12-02 16:25:00,38.8,35.3,29.06,WNW,297,0.0,7.0,87,0.00,,,0.00,Wunderground v.1.15,2013-12-02 21:25:00,
2013-12-02 16:34:00,38.5,35.3,29.05,WNW,298,0.0,7.0,88,0.00,,,0.00,Wunderground v.1.15,2013-12-02 21:34:00,
2013-12-02 16:39:00,38.3,35.1,29.06,WNW,298,0.0,7.0,88,0.00,,,0.00,Wunderground v.1.15,2013-12-02 21:39:00,
2013-12-02 16:44:00,38.1,34.9,29.06,WNW,298,0.0,7.0,88,0.00,,,0.00,Wunderground v.1.15,2013-12-02 21:44:00,
2013-12-02 16:49:00,38.0,35.0,29.06,WNW,298,0.0,7.0,89,0.00,,,0.00,Wunderground v.1.15,2013-12-02 21:49:00,
2013-12-02 16:54:00,37.8,34.8,29.06,WNW,298,0.0,7.0,89,0.00,,,0.00,Wunderground v.1.15,2013-12-02 21:54:00,
2013-12-02 17:04:00,37.5,34.6,29.06,WNW,298,0.0,7.0,89,0.00,,,0.00,Wunderground v.1.15,2013-12-02 22:04:00,
2013-12-02 17:09:00,37.4,34.5,29.06,WNW,298,0.0,7.0,89,0.00,,,0.00,Wunderground v.1.15,2013-12-02 22:09:00,
2013-12-02 17:14:00,37.3,34.6,29.06,WNW,298,0.0,7.0,90,0.00,,,0.00,Wunderground v.1.15,2013-12-02 22:14:00,
2013-12-02 17:19:00,37.3,34.6,29.06,WNW,298,0.0,7.0,90,0.00,,,0.00,Wunderground v.1.15,2013-12-02 22:19:00,
2013-12-02 17:24:00,37.1,34.4,29.07,WNW,298,0.0,7.0,90,0.00,,,0.00,Wunderground v.1.15,2013-12-02 22:24:00,
2013-12-02 17:29:00,37.1,34.4,29.07,WNW,298,0.0,7.0,90,0.00,,,0.00,Wunderground v.1.15,2013-12-02 22:29:00,
2013-12-02 17:35:00,37.0,34.3,29.07,WNW,298,0.0,7.0,90,0.00,,,0.00,Wunderground v.1.15,2013-12-02 22:35:00,
2013-12-02 17:40:00,36.9,34.5,29.07,WNW,298,0.0,7.0,91,0.00,,,0.00,Wunderground v.1.15,2013-12-02 22:40:00,
2013-12-02 17:45:00,36.9,34.5,29.07,WNW,298,0.0,7.0,91,0.00,,,0.00,Wunderground v.1.15,2013-12-02 22:45:00,
2013-12-02 17:50:00,36.9,34.5,29.07,WNW,298,0.0,7.0,91,0.00,,,0.00,Wunderground v.1.15,2013-12-02 22:50:00,
2013-12-02 17:55:00,36.9,34.5,29.07,WNW,298,0.0,7.0,91,0.00,,,0.00,Wunderground v.1.15,2013-12-02 22:55:00,
2013-12-02 18:00:00,36.9,34.5,29.07,WNW,298,0.0,7.0,91,0.00,,,0.00,Wunderground v.1.15,2013-12-02 23:00:00,
2013-12-02 18:10:00,36.8,34.7,29.08,WNW,300,0.0,7.0,92,0.00,,,0.00,Wunderground v.1.15,2013-12-02 23:10:00,
2013-12-02 18:15:00,36.7,34.6,29.08,WNW,300,0.0,7.0,92,0.00,,,0.00,Wunderground v.1.15,2013-12-02 23:15:00,
2013-12-02 18:20:00,36.6,34.2,29.08,NW,307,0.0,7.0,91,0.00,,,0.00,Wunderground v.1.15,2013-12-02 23:20:00,
2013-12-02 18:25:00,36.5,34.1,29.08,NW,307,0.0,7.0,91,0.00,,,0.00,Wunderground v.1.15,2013-12-02 23:25:00,
2013-12-02 18:30:00,36.4,34.0,29.08,NW,307,0.0,7.0,91,0.00,,,0.00,Wunderground v.1.15,2013-12-02 23:30:00,
2013-12-02 18:40:00,36.3,34.2,29.08,NW,307,0.0,7.0,92,0.00,,,0.00,Wunderground v.1.15,2013-12-02 23:40:00,
2013-12-02 18:45:00,36.2,34.1,29.08,NW,307,0.0,7.0,92,0.00,,,0.00,Wunderground v.1.15,2013-12-02 23:45:00,
2013-12-02 18:50:00,36.1,34.0,29.09,NW,307,0.0,7.0,92,0.00,,,0.00,Wunderground v.1.15,2013-12-02 23:50:00,
2013-12-02 18:55:00,36.0,33.9,29.09,NW,307,0.0,7.0,92,0.00,,,0.00,Wunderground v.1.15,2013-12-02 23:55:00,
2013-12-02 19:00:00,35.9,33.8,29.09,NW,307,0.0,7.0,92,0.00,,,0.00,Wunderground v.1.15,2013-12-03 00:00:00,
2013-12-02 19:05:00,35.9,33.8,29.09,NW,307,0.0,7.0,92,0.00,,,0.00,Wunderground v.1.15,2013-12-03 00:05:00,
2013-12-02 19:15:00,35.7,33.6,29.09,NW,308,0.0,7.0,92,0.00,,,0.00,Wunderground v.1.15,2013-12-03 00:15:00,
2013-12-02 19:20:00,35.6,33.5,29.09,NW,308,0.0,7.0,92,0.00,,,0.00,Wunderground v.1.15,2013-12-03 00:20:00,
2013-12-02 19:25:00,35.5,33.4,29.09,NW,308,1.0,7.0,92,0.00,,,0.00,Wunderground v.1.15,2013-12-03 00:25:00,
2013-12-02 19:30:00,35.4,33.3,29.09,NW,308,0.0,7.0,92,0.00,,,0.00,Wunderground v.1.15,2013-12-03 00:30:00,
2013-12-02 19:35:00,35.3,33.2,29.09,NW,308,0.0,7.0,92,0.00,,,0.00,Wunderground v.1.15,2013-12-03 00:35:00,
2013-12-02 19:45:00,35.1,33.0,29.10,NW,308,0.0,7.0,92,0.00,,,0.00,Wunderground v.1.15,2013-12-03 00:45:00,
2013-12-02 19:50:00,35.1,33.0,29.09,NW,308,0.0,7.0,92,0.00,,,0.00,Wunderground v.1.15,2013-12-03 00:50:00,
2013-12-02 19:55:00,35.0,33.2,29.09,NW,308,0.0,7.0,93,0.00,,,0.00,Wunderground v.1.15,2013-12-03 00:55:00,
2013-12-02 20:00:00,35.0,33.2,29.09,NW,308,0.0,7.0,93,0.00,,,0.00,Wunderground v.1.15,2013-12-03 01:00:00,
2013-12-02 20:05:00,34.9,33.1,29.10,NW,308,0.0,7.0,93,0.00,,,0.00,Wunderground v.1.15,2013-12-03 01:05:00,
2013-12-02 20:10:00,34.8,33.0,29.10,NW,308,0.0,7.0,93,0.00,,,0.00,Wunderground v.1.15,2013-12-03 01:10:00,
2013-12-02 20:19:00,34.7,32.9,29.10,NW,308,0.0,7.0,93,0.00,,,0.00,Wunderground v.1.15,2013-12-03 01:19:00,
2013-12-02 20:24:00,34.7,32.9,29.10,NW,308,0.0,7.0,93,0.00,,,0.00,Wunderground v.1.15,2013-12-03 01:24:00,
2013-12-02 20:29:00,34.6,32.8,29.09,NW,308,0.0,7.0,93,0.00,,,0.00,Wunderground v.1.15,2013-12-03 01:29:00,
2013-12-02 20:34:00,34.5,32.7,29.09,NW,308,0.0,7.0,93,0.00,,,0.00,Wunderground v.1.15,2013-12-03 01:34:00,
2013-12-02 20:39:00,34.4,32.6,29.10,NW,308,0.0,7.0,93,0.00,,,0.00,Wunderground v.1.15,2013-12-03 01:39:00,
2013-12-02 20:49:00,34.1,32.3,29.09,NW,308,0.0,7.0,93,0.00,,,0.00,Wunderground v.1.15,2013-12-03 01:49:00,
2013-12-02 20:54:00,34.0,32.2,29.09,NW,308,0.0,7.0,93,0.00,,,0.00,Wunderground v.1.15,2013-12-03 01:54:00,
2013-12-02 20:59:00,33.8,32.0,29.09,NW,308,0.0,7.0,93,0.00,,,0.00,Wunderground v.1.15,2013-12-03 01:59:00,
2013-12-02 21:04:00,33.6,31.8,29.09,NW,308,0.0,7.0,93,0.00,,,0.00,Wunderground v.1.15,2013-12-03 02:04:00,
2013-12-02 21:09:00,33.4,31.6,29.09,NW,308,0.0,7.0,93,0.00,,,0.00,Wunderground v.1.15,2013-12-03 02:09:00,
2013-12-02 21:14:00,33.3,31.5,29.09,NW,308,0.0,7.0,93,0.00,,,0.00,Wunderground v.1.15,2013-12-03 02:14:00,
2013-12-02 21:20:00,33.3,31.5,29.09,NW,308,0.0,7.0,93,0.00,,,0.00,Wunderground v.1.15,2013-12-03 02:20:00,
2013-12-02 21:25:00,33.3,31.8,29.09,NW,308,0.0,7.0,94,0.00,,,0.00,Wunderground v.1.15,2013-12-03 02:25:00,
2013-12-02 21:30:00,33.3,31.8,29.10,NW,308,0.0,7.0,94,0.00,,,0.00,Wunderground v.1.15,2013-12-03 02:30:00,
2013-12-02 21:35:00,33.2,31.7,29.10,NW,308,0.0,7.0,94,0.00,,,0.00,Wunderground v.1.15,2013-12-03 02:35:00,
2013-12-02 21:40:00,33.2,31.7,29.10,NW,308,0.0,7.0,94,0.00,,,0.00,Wunderground v.1.15,2013-12-03 02:40:00,
2013-12-02 21:45:00,33.2,31.7,29.10,NW,308,0.0,7.0,94,0.00,,,0.00,Wunderground v.1.15,2013-12-03 02:45:00,
2013-12-02 21:55:00,33.3,31.8,29.10,NW,308,0.0,7.0,94,0.00,,,0.00,Wunderground v.1.15,2013-12-03 02:55:00,
2013-12-02 22:00:00,33.3,31.8,29.10,NW,308,0.0,7.0,94,0.00,,,0.00,Wunderground v.1.15,2013-12-03 03:00:00,
2013-12-02 22:05:00,33.2,31.7,29.10,NW,308,0.0,7.0,94,0.00,,,0.00,Wunderground v.1.15,2013-12-03 03:05:00,
2013-12-02 22:10:00,33.0,31.5,29.09,NW,308,0.0,7.0,94,0.00,,,0.00,Wunderground v.1.15,2013-12-03 03:10:00,
2013-12-02 22:15:00,33.1,31.6,29.10,NW,307,0.0,7.0,94,0.00,,,0.00,Wunderground v.1.15,2013-12-03 03:15:00,
2013-12-02 22:25:00,32.6,31.1,29.10,WNW,302,1.0,7.0,94,0.00,,,0.00,Wunderground v.1.15,2013-12-03 03:25:00,
2013-12-02 22:30:00,32.4,30.9,29.10,WNW,295,1.0,1.0,94,0.00,,,0.00,Wunderground v.1.15,2013-12-03 03:30:00,
2013-12-02 22:35:00,32.1,30.6,29.10,WNW,293,1.0,7.0,94,0.00,,,0.00,Wunderground v.1.15,2013-12-03 03:35:00,
2013-12-02 22:40:00,32.2,30.7,29.10,WNW,293,0.0,7.0,94,0.00,,,0.00,Wunderground v.1.15,2013-12-03 03:40:00,
2013-12-02 22:45:00,32.1,30.6,29.10,WNW,293,0.0,7.0,94,0.00,,,0.00,Wunderground v.1.15,2013-12-03 03:45:00,
2013-12-02 22:50:00,31.9,30.4,29.10,WNW,292,0.0,7.0,94,0.00,,,0.00,Wunderground v.1.15,2013-12-03 03:50:00,
2013-12-02 23:00:00,31.9,30.4,29.10,WNW,294,0.0,7.0,94,0.00,,,0.00,Wunderground v.1.15,2013-12-03 04:00:00,
2013-12-02 23:05:00,31.8,30.5,29.10,WNW,294,0.0,7.0,95,0.00,,,0.00,Wunderground v.1.15,2013-12-03 04:05:00,
2013-12-02 23:10:00,31.7,30.2,29.10,WNW,294,0.0,7.0,94,0.00,,,0.00,Wunderground v.1.15,2013-12-03 04:10:00,
2013-12-02 23:15:00,31.7,30.4,29.10,WNW,296,0.0,7.0,95,0.00,,,0.00,Wunderground v.1.15,2013-12-03 04:15:00,
2013-12-02 23:20:00,31.9,30.6,29.10,WNW,296,0.0,7.0,95,0.00,,,0.00,Wunderground v.1.15,2013-12-03 04:20:00,
2013-12-02 23:29:00,32.0,30.7,29.10,WNW,297,0.0,7.0,95,0.00,,,0.00,Wunderground v.1.15,2013-12-03 04:29:00,
2013-12-02 23:34:00,32.0,30.7,29.10,WNW,297,0.0,7.0,95,0.00,,,0.00,Wunderground v.1.15,2013-12-03 04:34:00,
2013-12-02 23:39:00,32.1,30.8,29.10,WNW,297,0.0,7.0,95,0.00,,,0.00,Wunderground v.1.15,2013-12-03 04:39:00,
2013-12-02 23:44:00,32.1,30.8,29.10,WNW,297,0.0,7.0,95,0.00,,,0.00,Wunderground v.1.15,2013-12-03 04:44:00,
2013-12-02 23:49:00,32.2,30.9,29.10,WNW,296,0.0,7.0,95,0.00,,,0.00,Wunderground v.1.15,2013-12-03 04:49:00,
2013-12-02 23:54:00,32.2,30.9,29.10,WNW,299,0.0,7.0,95,0.00,,,0.00,Wunderground v.1.15,2013-12-03 04:54:00,